TimeEDT,TemperatureF,Dew PointF,Humidity,Sea Level PressureIn,VisibilityMPH,Wind Direction,Wind SpeedMPH,Gust SpeedMPH,PrecipitationIn,Events,Conditions,WindDirDegrees,DateUTC
12:53 AM,73.9,66.9,79,29.95,10.0,NNE,6.9,-,N/A,,Mostly Cloudy,30,2012-10-25 04:53:00
1:53 AM,73.9,68.0,82,29.94,10.0,NE,8.1,-,N/A,,Overcast,50,2012-10-25 05:53:00
2:53 AM,73.9,69.1,85,29.91,10.0,NNE,5.8,-,N/A,,Mostly Cloudy,30,2012-10-25 06:53:00
3:53 AM,73.9,68.0,82,29.90,10.0,NE,6.9,-,N/A,,Overcast,50,2012-10-25 07:53:00
4:41 AM,73.4,69.8,88,29.89,2.5,ENE,5.8,-,0.05,Rain,Heavy Rain,60,2012-10-25 08:41:00
4:53 AM,73.0,69.1,87,29.90,5.0,NNE,5.8,-,0.06,Rain,Light Rain,20,2012-10-25 08:53:00
5:03 AM,73.4,69.8,88,29.89,6.0,North,5.8,-,0.01,Rain,Light Rain,360,2012-10-25 09:03:00
5:53 AM,73.0,70.0,90,29.91,10.0,NNE,6.9,-,0.01,,Overcast,20,2012-10-25 09:53:00
6:53 AM,73.0,70.0,90,29.91,10.0,North,9.2,-,0.00,,Overcast,10,2012-10-25 10:53:00
7:53 AM,73.0,70.0,90,29.91,10.0,North,5.8,-,0.01,,Overcast,10,2012-10-25 11:53:00
8:53 AM,75.0,70.0,84,29.93,10.0,NNE,8.1,-,N/A,,Overcast,30,2012-10-25 12:53:00
9:06 AM,75.2,71.6,89,29.92,10.0,NNE,5.8,-,N/A,,Overcast,30,2012-10-25 13:06:00
9:53 AM,78.1,71.1,79,29.93,10.0,NE,6.9,-,N/A,,Overcast,40,2012-10-25 13:53:00
10:53 AM,80.1,71.1,74,29.92,10.0,ENE,11.5,-,N/A,,Mostly Cloudy,60,2012-10-25 14:53:00
11:53 AM,82.0,69.1,65,29.92,10.0,ENE,15.0,24.2,N/A,,Overcast,60,2012-10-25 15:53:00
12:53 PM,82.9,68.0,60,29.89,10.0,ENE,17.3,23.0,N/A,,Overcast,60,2012-10-25 16:53:00
1:53 PM,79.0,70.0,74,29.87,10.0,NE,15.0,23.0,0.02,,Mostly Cloudy,50,2012-10-25 17:53:00
2:53 PM,77.0,70.0,79,29.86,10.0,ENE,11.5,-,0.00,,Overcast,60,2012-10-25 18:53:00
3:19 PM,78.8,71.6,78,29.85,6.0,ENE,10.4,-,0.03,,Haze,70,2012-10-25 19:19:00
3:24 PM,75.2,71.6,89,29.84,1.8,ENE,8.1,-,0.12,Rain,Heavy Rain,60,2012-10-25 19:24:00
3:32 PM,75.2,71.6,89,29.85,4.0,NE,10.4,18.4,0.12,Rain,Light Rain,50,2012-10-25 19:32:00
3:48 PM,73.4,69.8,88,29.85,2.5,NE,11.5,20.7,0.18,Rain,Heavy Rain,50,2012-10-25 19:48:00
3:53 PM,73.0,70.0,90,29.86,4.0,NE,11.5,19.6,0.18,Rain,Light Rain,50,2012-10-25 19:53:00
4:53 PM,73.9,70.0,87,29.86,10.0,North,8.1,-,0.01,,Overcast,10,2012-10-25 20:53:00
5:53 PM,75.0,71.1,87,29.85,10.0,NNE,8.1,-,N/A,,Overcast,20,2012-10-25 21:53:00
6:39 PM,75.2,71.6,89,29.85,10.0,NNE,8.1,-,N/A,,Mostly Cloudy,20,2012-10-25 22:39:00
6:53 PM,75.9,71.1,85,29.86,10.0,NNE,6.9,-,N/A,,Overcast,20,2012-10-25 22:53:00
7:53 PM,75.0,69.1,82,29.87,10.0,NE,6.9,18.4,0.00,Rain,Light Rain,40,2012-10-25 23:53:00
9:53 PM,75.9,69.1,79,29.86,10.0,NNE,8.1,-,N/A,,Overcast,30,2012-10-26 01:53:00
10:53 PM,75.9,69.1,79,29.86,10.0,NNE,8.1,-,N/A,,Mostly Cloudy,30,2012-10-26 02:53:00